Location: Staunton
(38.1490°N, 79.0720°W)
Time: 10:45:15
(UTC-04:00)

ISS - Pass Details

Date: 31 May 2020
Orbit: 417 x 420 km, 51.6° (Epoch: 25 May)

Event Time Altitude Azimuth Distance (km) Brightness Sun altitude
Rises 20:59:45 0° 319° (NW) 2,363 2.0 -5.3°
Reaches altitude 10° 21:02:22 10° 340° (NNW) 1,498 0.0 -5.7°
Maximum altitude 21:04:41 17° 24° (NNE) 1,137 -1.4 -6.1°
Drops below altitude 10° 21:06:59 10° 67° (ENE) 1,495 -1.3 -6.4°
Enters shadow 21:08:51 - 84° (E) 2,085 -0.7 -6.7°
